This is the latest recevied weather packets stored in our database for station/object ZL1CTS-13. If no packets are shown the sender has not sent any weather packets the latest 10 day(s).
| Time | Temp. | Humidity | Pressure | Rain* | Wind** | Luminosity | Snow |
|---|---|---|---|---|---|---|---|
| 1787889007 | 16.11° C | 86% | 1009 hPa | 0 mm | - | - | - |
| 1787888704 | 16.11° C | 82% | 1009 hPa | 0 mm | - | - | - |
| 1787888406 | 17.22° C | 81% | 1009.2 hPa | 0 mm | - | - | - |
| 1787888104 | 17.22° C | 81% | 1009.1 hPa | 0 mm | - | - | - |
| 1787887807 | 16.67° C | 83% | 1009.2 hPa | 0 mm | - | - | - |
| 1787887504 | 16.67° C | 82% | 1009.4 hPa | 0 mm | - | - | - |
| 1787887206 | 16.67° C | 81% | 1009.3 hPa | 0 mm | - | - | - |
| 1787886904 | 17.22° C | 77% | 1009.4 hPa | 0 mm | - | - | - |
| 1787886605 | 17.78° C | 76% | 1009.5 hPa | 0 mm | - | - | - |
| 1787886304 | 17.78° C | 76% | 1009.4 hPa | 0 mm | - | - | - |
| 1787886012 | 18.33° C | 75% | 1009.6 hPa | 0 mm | - | - | - |
| 1787885704 | 17.78° C | 73% | 1009.7 hPa | 0 mm | - | - | - |
| 1787885404 | 18.33° C | 74% | 1009.7 hPa | 0 mm | - | - | - |
| 1787885104 | 17.78° C | 73% | 1009.6 hPa | 0 mm | - | - | - |
| 1787884804 | 17.78° C | 73% | 1009.7 hPa | 0 mm | - | - | - |
| 1787884504 | 17.78° C | 74% | 1009.5 hPa | 0 mm | - | - | - |
| 1787884204 | 17.22° C | 76% | 1009.5 hPa | 0 mm | - | - | - |
| 1787883904 | 16.67° C | 77% | 1009.7 hPa | 0 mm | - | - | - |
| 1787883610 | 16.11° C | 76% | 1009.8 hPa | 0 mm | - | - | - |
| 1787883304 | 16.11° C | 76% | 1009.7 hPa | 0 mm | - | - | - |
| 1787883004 | 16.11° C | 76% | 1009.9 hPa | 0 mm | - | - | - |
| 1787882704 | 16.11° C | 76% | 1009.8 hPa | 0 mm | - | - | - |
| 1787882404 | 16.11° C | 76% | 1009.8 hPa | 0 mm | - | - | - |
| 1787882103 | 16.11° C | 75% | 1010.1 hPa | 0 mm | - | - | - |
| 1787881804 | 16.11° C | 75% | 1010.2 hPa | 0 mm | - | - | - |
* Rain latest hour (hover to see other rain measurements)
** Current wind speed in m/s (hover to see current wind gust speed)